Overview Statistics Trail Chart Weather Telemetry Raw packets
 

This is the latest recevied weather packets stored in our database for station/object TB1YZC-13. If no packets are shown the sender has not sent any weather packets the latest 10 day(s).

<< 3 4 5 6 7 8 9 >>
Time Temp. Humidity Pressure Rain* Wind** Luminosity Snow
1788598527 28.89° C 43% 1019.3 hPa - - - -
1788597925 28.33° C 46% 1019.4 hPa - - - -
1788597321 28.33° C 48% 1019.6 hPa - - - -
1788596718 28.33° C 46% 1019.7 hPa - - - -
1788596115 27.78° C 48% 1019.8 hPa - - - -
1788595513 27.78° C 47% 1019.8 hPa - - - -
1788594909 27.22° C 54% 1020 hPa - - - -
1788594306 27.22° C 55% 1020 hPa - - - -
1788593703 26.67° C 55% 1020.1 hPa - - - -
1788593100 26.67° C 60% 1020.1 hPa - - - -
1788592496 26.67° C 63% 1020.1 hPa - - - -
1788591893 26.11° C 67% 1020.2 hPa - - - -
1788591290 25.56° C 72% 1020.2 hPa - - - -
1788590687 25° C 75% 1020.3 hPa - - - -
1788590084 25.56° C 76% 1020.4 hPa - - - -
1788589480 24.44° C 82% 1020.4 hPa - - - -
1788588877 23.89° C 83% 1020.4 hPa - - - -
1788588274 23.33° C 84% 1020.4 hPa - - - -
1788587671 22.78° C 88% 1020.4 hPa - - - -
1788587068 22.22° C 87% 1020.3 hPa - - - -
1788586464 23.33° C 82% 1020.3 hPa - - - -
1788585861 22.78° C 83% 1020.3 hPa - - - -
1788585258 22.22° C 85% 1020.5 hPa - - - -
1788584655 21.67° C 86% 1020.5 hPa - - - -
1788584052 21.11° C 87% 1020.5 hPa - - - -

* Rain since midnight (hover to see other rain measurements)
** Current wind speed in m/s (hover to see current wind gust speed)